RH
54 54 53 54 56 57 57 59 59 61 61 61 60 64 69 70 50 51 54 73 82 81 77 68 69 72 74 76 75 72 71 74 72
54 55 52 52 54 56 55 57 56 57 59 56 56 58 62 50 48 49 50 49 62 77 78 76 72 70 73 76 80 74 71 73 75
56 55 55 55 55 53 52 54 54 55 55 53 54 57 61 43 38 45 51 60 63 56 61 76 78 75 71 76 76 78 75 73 74
55 56 54 53 54 52 52 53 53 55 55 54 56 58 59 39 40 39 45 60 59 56 54 57 65 76 78 75 77 76 76 75 75
56 59 55 54 53 52 53 53 54 56 57 57 59 61 55 36 39 42 42 55 57 54 53 53 56 59 71 84 79 78 77 78 78
44 58 57 54 53 53 54 55 57 60 59 62 63 64 43 42 40 39 51 55 53 54 53 52 58 58 67 75 88 82 80 79 80
43 51 56 55 56 56 58 59 59 54 45 43 54 45 46 45 45 40 59 58 53 53 53 56 60 74 79 81 83 92 86 84 82
42 44 43 44 50 44 48 47 45 48 46 46 43 48 48 47 47 48 65 61 54 53 53 54 74 77 77 75 74 85 87 92 82
41 40 46 44 43 46 50 46 45 47 47 45 45 48 51 51 50 48 66 63 60 58 53 60 78 74 70 71 79 86 89 90 87
46 42 44 44 46 47 48 46 45 46 45 44 48 49 50 53 52 50 66 69 67 60 58 50 68 73 72 70 76 81 87 91 92
49 46 46 45 48 50 48 46 48 48 47 46 45 49 55 56 55 51 48 68 71 65 54 52 55 57 71 70 75 78 85 90 89
50 48 50 48 48 50 48 46 48 47 47 48 53 55 56 58 56 54 52 54 68 77 62 61 61 61 60 64 76 77 81 88 91
52 51 51 49 52 51 50 50 49 48 51 54 57 63 62 59 56 56 56 58 55 65 76 73 70 64 58 58 70 75 76 82 83
51 52 52 51 54 52 54 51 57 55 55 58 62 64 65 63 57 57 57 60 62 62 74 79 82 75 66 53 61 73 69 74 75
55 55 53 53 53 52 54 57 55 58 63 59 64 66 67 64 60 57 53 55 54 53 60 60 63 80 70 70 70 71 73 74 76
63 58 56 57 54 53 53 58 60 55 63 58 63 65 63 61 57 53 52 53 52 48 47 52 54 55 75 68 64 63 62 62 64
64 60 59 58 56 54 56 61 59 57 66 66 72 71 63 59 59 56 52 54 51 48 47 46 55 58 62 68 72 64 61 63 66
66 67 60 59 59 58 59 63 67 60 61 69 66 58 68 70 62 62 56 52 50 52 54 51 54 58 62 65 71 79 67 64 63
69 70 66 60 59 58 59 60 62 65 63 64 63 72 72 69 63 58 59 53 52 59 62 56 55 61 65 78 82 78 70 61 60
69 72 70 64 61 59 59 60 62 62 66 68 70 69 69 74 71 66 62 52 55 55 68 70 68 71 70 65 71 72 60 56 55
Wind_Speed
8 9 9 9 10 11 11 11 11 11 11 11 11 10 11 9 6 6 6 6 8 12 12 12 12 12 10 12 12 13 13 12 11
8 9 9 9 9 11 11 11 12 12 12 11 11 11 10 8 6 6 6 7 11 13 14 15 14 14 12 13 14 15 14 14 14
9 10 9 10 10 11 11 11 12 12 12 13 12 11 10 6 6 6 5 8 12 13 13 11 14 16 14 14 15 15 16 15 15
9 10 10 10 10 10 11 11 12 12 12 12 12 12 10 6 4 6 4 9 11 12 13 13 13 13 17 15 17 17 18 18 17
10 10 10 10 10 10 10 11 12 12 12 12 13 13 10 7 6 4 4 10 11 11 12 12 13 15 15 18 18 17 19 20 19
6 7 8 8 9 9 10 11 11 11 9 11 11 10 4 6 5 4 9 11 11 12 12 12 13 13 13 13 14 18 19 21 20
4 5 7 8 8 8 10 10 10 8 5 5 8 5 6 5 5 5 10 11 11 11 12 12 12 8 6 7 11 12 22 24 22
3 3 4 5 7 4 6 6 5 7 5 6 6 7 6 4 4 6 11 10 10 10 12 10 1 4 4 4 3 1 15 14 20
2 2 3 3 3 5 5 4 6 7 7 7 8 7 6 5 4 6 10 10 9 9 10 3 3 3 3 2 4 8 7 6 6
1 2 2 3 3 3 4 5 6 7 8 8 7 8 7 6 4 4 9 10 10 7 7 7 5 5 6 7 7 13 13 5 15
2 2 3 3 3 4 4 5 6 6 7 8 9 7 5 6 6 4 4 9 7 5 4 4 5 7 9 8 6 8 15 12 6
3 2 3 3 3 5 4 5 5 6 6 9 7 5 5 4 5 4 4 5 7 10 6 7 7 11 9 10 9 6 5 18 6
3 2 2 3 3 3 4 5 6 6 7 7 6 5 4 4 3 3 4 4 4 5 11 11 9 10 11 10 11 10 8 18 11
2 3 2 3 3 3 4 4 4 5 7 5 4 5 4 5 4 7 7 7 6 4 7 10 12 13 7 4 3 8 9 9 10
2 2 2 2 2 3 4 5 5 3 7 4 4 5 4 4 5 6 6 7 8 7 7 5 6 14 15 14 11 12 12 9 12
2 2 2 1 2 3 4 4 4 3 7 3 2 2 5 6 6 5 5 7 7 7 6 4 4 4 11 13 13 12 9 9 11
2 3 2 1 1 2 3 4 3 2 5 4 2 1 2 3 4 5 5 6 4 6 6 6 5 4 4 8 11 10 8 9 11
3 2 3 2 1 1 1 2 4 4 2 5 3 2 2 3 1 2 5 6 5 6 5 4 5 4 4 5 8 11 11 12 8
3 1 3 3 1 1 1 1 0 0 3 1 3 2 3 2 2 0 2 4 7 8 5 4 3 3 4 8 10 12 13 12 9
3 2 2 2 1 1 1 2 1 0 1 1 1 1 1 0 1 3 4 2 4 6 5 4 4 5 6 5 9 12 9 8 8
Wind_Direction
27 27 20 19 17 13 9 8 6 10 8 9 6 5 359 349 345 338 331 309 292 280 274 275 279 275 254 236 225 209 197 190 192
30 17 10 11 12 9 7 7 9 5 4 3 4 6 4 354 344 336 326 309 303 295 284 279 277 273 262 243 235 223 208 200 193
36 28 22 15 12 9 7 8 5 2 358 355 356 356 359 353 341 336 323 319 306 295 297 287 277 271 264 253 238 233 224 214 209
38 33 23 14 10 7 5 4 1 356 352 350 349 348 348 332 324 319 319 316 311 299 291 290 283 276 270 255 244 238 231 222 219
30 25 18 17 10 6 4 360 357 355 350 348 347 343 332 333 319 305 296 309 305 302 296 290 286 279 270 257 251 241 236 231 225
32 22 20 14 10 9 6 2 360 355 347 346 343 334 325 321 309 302 307 310 307 298 299 298 301 282 270 266 273 262 257 237 225
24 18 19 13 10 7 7 3 357 351 341 332 332 328 320 306 301 295 306 307 309 302 300 303 307 327 350 9 248 312 332 253 226
19 7 5 356 4 1 357 353 354 340 335 329 323 319 319 307 303 301 305 312 309 306 295 309 31 70 84 75 100 267 326 270 218
20 6 357 354 356 349 353 343 335 330 325 324 319 319 314 307 304 298 310 312 309 291 295 284 196 195 236 201 163 119 31 349 262
332 340 346 351 347 351 344 336 332 326 326 324 321 312 308 306 307 302 317 323 307 300 292 287 214 246 268 268 225 183 114 62 350
294 320 342 345 347 344 335 332 330 323 323 321 326 310 303 304 300 304 321 330 336 332 303 329 324 268 252 247 232 225 142 94 2
264 295 326 341 343 335 334 335 328 325 330 328 330 323 327 315 307 318 348 341 5 13 34 32 358 319 307 246 202 156 98 107 92
264 289 320 338 345 343 337 342 335 339 338 338 346 353 10 5 1 17 28 17 15 17 30 32 7 326 304 292 234 162 138 114 110
228 276 313 338 351 356 345 335 341 334 346 342 3 14 29 37 56 60 55 46 39 30 36 30 17 9 352 273 326 134 128 138 140
208 256 281 345 352 357 357 337 336 327 344 334 17 33 45 53 52 53 54 44 38 40 36 20 25 12 28 32 57 67 95 90 105
235 231 253 325 20 9 351 332 339 344 349 331 43 50 47 60 54 52 51 43 32 28 29 25 12 25 30 33 37 48 56 61 74
246 203 230 210 48 19 7 7 334 332 13 7 322 345 178 52 45 47 34 28 14 18 16 13 27 26 51 45 43 46 61 78 75
313 216 207 195 129 62 17 351 9 351 6 31 348 320 343 327 11 22 32 25 12 1 354 11 16 31 63 50 45 34 41 49 56
330 235 202 196 167 174 167 148 20 328 13 323 23 14 325 337 313 91 28 21 18 4 359 352 18 52 76 64 51 40 41 41 34
357 2 183 197 208 218 226 196 217 255 308 333 334 347 13 350 325 318 340 2 19 12 9 34 53 66 86 77 52 46 45 29 22